Location: Charlottesville
(38.0290°N, 78.4770°W)
Time: 13:55:59
(UTC-05:00)

OTV 5 (USA 277) - Pass Details

Date: 12 October 2017
Orbit: 404 x 417 km, 43.0° (Epoch: 07 September)

Event Time Altitude Azimuth Distance (km) Brightness Sun altitude
Rises 19:36:53 0° 256° (WSW) 2,348 ? -12.0°
Reaches altitude 10° 19:39:01 10° 261° (W) 1,487 ? -12.4°
Maximum altitude 19:42:20 60° 342° (NNW) 481 ? -13.0°
Enters shadow 19:44:25 21° 57° (ENE) 1,001 ? -13.5°
